Lid_Strength_Index
2 3 3 3 2 2 2 3 4 7 6 3 3 1 0 -0 -0 -0 0 1 1 2 3 3 2 1 1 1 1 0 -0 -0 -0 -0 -1 0 0 1
2 2 3 2 2 2 2 2 3 4 6 3 2 1 1 -0 -0 0 0 2 3 3 3 3 3 3 2 2 1 1 1 0 1 1 0 1 1 -0
2 2 2 2 2 2 2 2 3 3 5 3 2 1 1 1 1 0 0 2 3 3 3 3 4 3 3 3 2 2 2 2 2 1 1 1 1 -0
2 2 2 1 2 2 2 2 2 3 3 4 3 2 2 1 1 1 1 1 1 3 4 4 4 4 4 4 4 3 3 3 2 2 2 2 1 0
2 2 2 2 2 2 2 2 3 2 3 3 3 3 3 2 2 1 1 1 2 3 5 5 4 4 4 4 4 5 5 5 4 4 4 3 2 1
2 2 3 2 2 2 2 2 2 2 3 4 3 4 3 3 2 3 3 2 3 3 3 4 4 4 4 4 4 4 6 6 6 6 5 5 5 3
3 3 2 2 2 2 2 2 2 3 3 3 3 3 3 3 3 4 5 4 4 4 4 3 3 3 4 4 3 4 6 6 7 7 6 6 5 4
4 3 2 2 3 5 4 4 2 3 4 3 3 4 3 4 3 3 3 3 6 3 4 4 2 3 3 3 5 6 7 7 7 7 7 5 6 6
3 3 2 1 2 2 5 5 5 5 4 3 3 3 3 3 3 3 3 4 5 5 3 5 3 3 3 4 7 7 8 8 8 7 7 6 6 7
3 3 2 2 3 2 2 3 3 3 3 1 2 2 2 2 2 2 4 4 3 4 5 6 4 4 5 6 8 8 8 8 8 7 6 6 7 7
2 2 2 2 8 8 2 3 4 4 6 5 6 7 8 7 4 3 4 4 5 5 4 6 5 5 5 7 7 8 9 8 7 7 7 7 7 8
3 3 9 5 10 8 2 3 3 3 3 4 5 7 6 6 6 3 3 4 5 6 5 7 5 6 7 5 7 8 8 7 7 7 7 7 8 7
3 4 5 10 10 10 6 2 3 3 4 3 3 3 4 3 3 3 3 4 5 6 5 4 6 6 7 7 7 7 7 6 7 7 8 8 8 7
3 4 7 11 11 9 6 10 8 5 2 3 3 3 3 3 3 3 3 4 3 3 4 4 5 6 7 7 7 6 6 5 6 5 6 7 8 8
4 7 12 11 11 9 10 9 6 2 2 3 4 3 3 3 3 3 3 3 3 3 3 4 3 4 6 6 5 5 5 4 4 5 6 6 6 8
9 8 8 8 8 7 6 4 2 2 2 3 3 3 3 3 3 4 4 4 4 4 2 4 4 3 5 4 3 4 5 5 5 5 4 5 4 5
6 4 4 4 3 3 3 2 3 2 3 3 3 3 3 4 4 5 5 4 4 5 5 4 4 3 3 3 4 3 3 4 4 4 5 5 4 3
5 5 5 4 3 3 2 3 2 3 3 3 3 3 3 3 4 4 4 4 4 4 5 4 3 3 3 3 2 2 3 3 2 3 4 5 4 3
5 5 5 4 4 3 2 2 2 2 2 2 3 3 3 3 6 4 4 4 5 4 5 5 4 4 5 5 3 4 2 2 3 4 3 3 2 2
4 4 5 4 3 3 3 2 2 2 2 2 2 2 3 3 4 4 4 4 5 4 4 4 4 4 4 4 5 4 8 2 4 3 3 2 2 5
5 4 4 4 3 3 2 2 2 2 2 2 2 3 3 4 4 4 4 9 7 3 4 4 3 8 2 3 5 4 2 9 4 3 3 4 3 5
4 4 3 3 3 3 2 2 3 4 3 2 2 3 3 3 4 4 3 3 4 4 3 2 3 4 5 4 4 3 3 3 6 8 8 5 4 5
2 3 4 4 3 2 2 3 4 3 4 3 2 3 3 3 2 3 3 3 2 3 3 4 5 4 4 3 5 4 4 3 2 2 3 8 9 9